sat.trackr.live / text

‹ back to catalog

YAOGAN-30 09A

NORAD 48423 · 2021-039A

PAYLOAD ACTIVE UNKNOWN

§ Identity

Operator
Country
PRC
Launch date
2021-05-06
Launch site
XICLF
Launch vehicle
Mass (kg)
RCS (m²)

External: N2YO · Heavens-Above · Gunter

§ Orbital elements

Epoch: 2026-05-25T04:11:28.995360Z

Period
95.84 min
Inclination
34.9957°
Eccentricity
0.0004517
Mean motion
15.02524829 rev/d
Perigee alt
556.0 km
Apogee alt
562.2 km
Semi-major
6,937.3 km
B*
1.2121e-4
RAAN
171.8723°
Arg perigee
215.6491°
Mean anomaly
144.3916°
Rev number
27,608

§ Raw data

YAOGAN-30 09A1 48423U 21039A   26145.17464115  .00001614  00000+0  12121-3 0  99942 48423  34.9957 171.8723 0004517 215.6491 144.3916 15.02524829276083

JSON: /api/v1/satellites/48423 · /tle

For live sub-satellite position, see the globe view (requires WebGL).

§ Visibility from observer

Set your observer location to see the next 7 days of passes ≥ 10°. The values pass through the URL so the page stays shareable.

No JS? Fill the form by hand. The geolocation button needs JavaScript.